Eastover, SC

7:25 AM EDT on August 23, 2017 (GMT -0400)
McEntire Angs

Weather History for KMMT - April, 2013

Change the Weather History Date:

Friday, April 19, 2013

  Actual Average Record
Temperature  
Mean Temperature 72 °F -  
Max Temperature 84 °F 74 °F 91 °F (2002)
Min Temperature 56 °F 52 °F 39 °F (2001)
Cooling Degree Days 7    
Growing Degree Days 22 (Base 50)    
Moisture  
Dew Point 66 °F    
Average Humidity 86    
Maximum Humidity 100    
Minimum Humidity 50    
Precipitation  
Precipitation 0.52 in - - ()
Sea Level Pressure  
Sea Level Pressure 29.90 in    
Wind  
Wind Speed 9 mph (SSW)    
Max Wind Speed 22 mph    
Max Gust Speed 33 mph    
Visibility 8 miles    
Events Rain , Thunderstorm    
Averages and records for this station are not official NWS values.
T = Trace of Precipitation, MM = Missing Value Source: NWS Daily Summary

Daily Weather History Graph

Daily Weather History Graph

Search for Another Location

Airport or City:

Trip Planner

Search our weather history database for the weather conditions in past years. The results will help you decide how hot, cold, wet, or windy it might be!

Date:

Astronomy

Apr. 19, 2013 Rise Set
Actual Time 6:47 AM EDT 7:57 PM EDT
Civil Twilight 6:21 AM EDT 8:23 PM EDT
Nautical Twilight 5:50 AM EDT 8:54 PM EDT
Astronomical Twilight 5:18 AM EDT 9:26 PM EDT
Moon 1:57 PM EDT (4/19) 2:44 AM EDT (4/19)
Length of Visible Light 14h 02m
Length of Day
13h 10m
First Quarter, 61% of the Moon is Illuminated
Apr 19
First Quarter
Apr 25
Full
May 2
Last Quarter
May 9
New
May 18
First Quarter

Hourly Weather History & Observations

Time (EDT) Temp. Heat Index Dew Point Humidity Pressure Visibility Wind Dir Wind Speed Gust Speed Precip Events Conditions
12:58 AM 65.5 °F - 63.5 °F 93% 30.01 in 10.0 mi ESE 5.8 mph - N/A   Partly Cloudy
1:58 AM 64.9 °F - 64.4 °F 98% 30.00 in 10.0 mi ESE 4.6 mph - N/A   Clear
2:58 AM 64.9 °F - 64.9 °F 100% 29.96 in 10.0 mi ESE 4.6 mph - N/A   Clear
3:58 AM 64.6 °F - 64.6 °F 100% 29.96 in 10.0 mi SSE 4.6 mph - N/A   Clear
4:58 AM 64.6 °F - 64.6 °F 100% 29.95 in 10.0 mi SE 5.8 mph - N/A   Clear
5:58 AM 64.8 °F - 64.8 °F 100% 29.94 in 10.0 mi SE 5.8 mph - N/A   Mostly Cloudy
6:18 AM 66.2 °F - 66.2 °F 100% 29.93 in 10.0 mi SSE 6.9 mph - N/A   Overcast
6:58 AM 66.7 °F - 66.7 °F 100% 29.95 in 10.0 mi SSE 5.8 mph - N/A   Overcast
7:18 AM 68.0 °F - 68.0 °F 100% 29.94 in 10.0 mi Variable 6.9 mph - N/A   Overcast
7:48 AM 69.8 °F - 68.0 °F 94% 29.95 in 10.0 mi South 10.4 mph - N/A   Overcast
7:58 AM 69.6 °F - 67.6 °F 93% 29.96 in 10.0 mi South 11.5 mph - N/A   Overcast
8:58 AM 72.1 °F - 67.8 °F 86% 29.96 in 10.0 mi South 13.8 mph 18.4 mph N/A   Overcast
9:28 AM 73.4 °F - 68.0 °F 83% 29.95 in 10.0 mi South 12.7 mph 21.9 mph N/A   Overcast
9:58 AM 74.8 °F - 67.6 °F 78% 29.95 in 10.0 mi South 13.8 mph 25.3 mph N/A   Mostly Cloudy
10:58 AM 79.9 °F - 68.0 °F 67% 29.93 in 10.0 mi South 16.1 mph 26.5 mph N/A   Mostly Cloudy
11:58 AM 81.9 °F 84.4 °F 67.1 °F 61% 29.91 in 10.0 mi South 19.6 mph 25.3 mph N/A   Mostly Cloudy
12:58 PM 82.6 °F 85.3 °F 67.3 °F 60% 29.86 in 10.0 mi South 18.4 mph 25.3 mph N/A   Mostly Cloudy
1:58 PM 83.7 °F 85.5 °F 65.3 °F 54% 29.84 in 10.0 mi SSW 18.4 mph 28.8 mph N/A   Mostly Cloudy
2:58 PM 84.0 °F 85.8 °F 64.9 °F 53% 29.83 in 10.0 mi SSW 16.1 mph 26.5 mph N/A   Overcast
3:58 PM 84.4 °F 85.6 °F 63.9 °F 50% 29.81 in 10.0 mi SSW 17.3 mph 28.8 mph N/A   Overcast
4:24 PM 78.8 °F - 66.2 °F 65% 29.81 in 5.0 mi SSW 15.0 mph 33.4 mph N/A Rain Rain
4:25 PM 78.8 °F - 66.2 °F 65% 29.81 in 4.0 mi SSW 12.7 mph 33.4 mph N/A Rain , Thunderstorm Light Thunderstorms and Rain
4:58 PM 70.9 °F - 65.7 °F 83% 29.81 in 10.0 mi WSW 6.9 mph - 0.07 in Thunderstorm Thunderstorm
5:17 PM 71.6 °F - 66.2 °F 83% 29.86 in 1.2 mi WSW 21.9 mph 27.6 mph N/A Rain , Thunderstorm Light Thunderstorms and Rain
5:18 PM 71.6 °F - 66.2 °F 83% 29.86 in 2.5 mi WSW 18.4 mph 27.6 mph N/A Rain Rain
5:25 PM 69.8 °F - 64.4 °F 83% 29.82 in 5.0 mi WSW 8.1 mph 27.6 mph N/A Rain , Thunderstorm Light Thunderstorms and Rain
5:58 PM 68.0 °F - 66.9 °F 96% 29.86 in 7.0 mi West 10.4 mph - 0.24 in Rain Light Rain
6:58 PM 68.0 °F - 67.1 °F 97% 29.87 in 5.0 mi SSW 5.8 mph - 0.09 in Rain Light Rain
7:58 PM 68.0 °F - 68.0 °F 100% 29.88 in 10.0 mi SSW 6.9 mph - 0.03 in Rain Light Rain
8:28 PM 68.0 °F - 68.0 °F 100% 29.88 in 5.0 mi SW 4.6 mph - N/A Rain Light Rain
8:48 PM 68.0 °F - 68.0 °F 100% 29.88 in 5.0 mi SSW 5.8 mph - N/A Rain Light Rain
8:58 PM 68.0 °F - 68.0 °F 100% 29.88 in 5.0 mi SSW 4.6 mph - 0.04 in Rain Light Rain
9:08 PM 68.0 °F - 68.0 °F 100% 29.88 in 7.0 mi SSW 5.8 mph - N/A Rain Light Rain
9:25 PM 68.0 °F - 68.0 °F 100% 29.87 in 10.0 mi SSW 10.4 mph - N/A Rain Light Rain
9:58 PM 66.2 °F - 64.6 °F 94% 29.88 in 10.0 mi WSW 6.9 mph - 0.03 in   Overcast
10:58 PM 60.4 °F - 55.0 °F 82% 29.95 in 10.0 mi West 9.2 mph - 0.00 in Rain Light Rain
11:58 PM 56.8 °F - 52.0 °F 84% 29.95 in 10.0 mi SW 4.6 mph - 0.02 in Rain Light Rain